EW0811 Weather Reports


time (UTC)temp
C
wind
direction
speed
KPH
gust
KPH
rain 1hr
cm
rain 24hr
cm
rain mn
cm
humidity
%
barometer
mb
20260505041016 16 203 8.0 19.3 0.00 0.00 0.00 73 1001.9
20260505040017 15 203 6.4 9.7 0.00 0.00 0.00 72 1001.8
20260505035017 15 158 6.4 11.3 0.00 0.00 0.00 72 1001.8
20260505034017 15 203 6.4 9.7 0.00 0.00 0.00 71 1001.9
20260505033017 15 203 4.8 6.4 0.00 0.00 0.00 70 1002.2
20260505032037 15 225 3.2 4.8 0.00 0.00 0.00 68 1002.4
20260505031016 15 180 8.0 14.5 0.00 0.00 0.00 68 1002.4
20260505030017 15 225 4.8 6.4 0.00 0.00 0.00 64 1002.6
20260505025017 15 180 4.8 9.7 0.00 0.00 0.00 62 1002.6
20260505024058 15 225 4.8 8.0 0.00 0.00 0.00 65 1002.5
20260505023017 14 248 6.4 19.3 0.00 0.00 0.00 65 1002.5
20260505022016 14 203 3.2 6.4 0.00 0.00 0.00 67 1002.4
20260505021016 13 180 4.8 9.7 0.00 0.00 0.00 67 1002.4
20260505020017 13 180 3.2 4.8 0.00 0.00 0.00 68 1002.4
20260505015037 13 135 3.2 4.8 0.00 0.00 0.00 68 1002.4
20260505014016 13 203 4.8 9.7 0.00 0.00 0.00 69 1002.4
20260505013017 13 225 1.6 6.4 0.00 0.00 0.00 71 1002.5
20260505012036 13 203 1.6 3.2 0.00 0.00 0.00 71 1002.6
20260505011016 13 0.0 1.6 0.00 0.00 0.00 68 1002.5
20260505010037 14 203 1.6 1.6 0.00 0.00 0.00 67 1002.4
20260505005016 15 0.0 3.2 0.00 0.00 0.00 66 1002.4
20260505004016 16 203 1.6 3.2 0.00 0.00 0.00 61 1002.4
20260505003016 16 203 1.6 3.2 0.00 0.00 0.00 59 1002.4
20260505002037 17 203 1.6 6.4 0.00 0.00 0.00 58 1002.5
20260505001016 18 180 1.6 3.2 0.00 0.00 0.00 54 1002.6
20260505000016 19 203 4.8 8.0 0.00 0.03 0.00 52 1002.5
20260504235016 20 203 1.6 4.8 0.00 0.03 0.00 51 1002.5
20260504234016 20 248 3.2 6.4 0.00 0.03 0.00 49 1002.5
20260504233016 20 248 11.3 17.7 0.00 0.03 0.00 48 1002.6
20260504232016 20 248 11.3 16.1 0.00 0.03 0.00 46 1002.6
20260504231018 21 248 8.0 12.9 0.00 0.03 0.00 47 1002.6
20260504230018 21 225 6.4 9.7 0.00 0.05 0.00 46 1002.6
20260504225016 21 248 4.8 11.3 0.00 0.05 0.00 43 1002.7
20260504224021 21 225 9.7 17.7 0.00 0.05 0.00 41 1002.7
20260504223056 21 248 11.3 16.1 0.00 0.05 0.00 41 1002.8
20260504222016 21 248 9.7 17.7 0.00 0.05 0.00 42 1002.7
20260504221016 21 248 17.7 25.7 0.00 0.05 0.00 40 1002.7
20260504220016 21 203 12.9 19.3 0.00 0.05 0.00 40 1002.8
20260504215016 22 248 14.5 22.5 0.00 0.05 0.00 40 1002.9
20260504214016 22 248 17.7 27.4 0.00 0.05 0.00 39 1002.9
20260504213016 22 248 11.3 16.1 0.00 0.05 0.00 44 1002.8
20260504212016 22 225 8.0 16.1 0.00 0.05 0.00 45 1002.8
20260504211120 22 225 14.5 25.7 0.00 0.05 0.00 45 1002.8
20260504210018 23 225 14.5 20.9 0.00 0.05 0.00 41 1002.9
20260504205016 23 225 12.9 20.9 0.00 0.05 0.00 44 1003.0
20260504204017 22 203 14.5 25.7 0.00 0.05 0.00 45 1003.0
20260504203038 23 225 11.3 17.7 0.00 0.05 0.00 44 1003.1
20260504202037 23 225 9.7 12.9 0.00 0.05 0.00 44 1003.1
20260504201016 22 203 14.5 20.9 0.00 0.05 0.00 45 1003.2
20260504200036 23 248 14.5 20.9 0.00 0.05 0.00 44 1003.3
20260504195016 23 248 11.3 20.9 0.00 0.05 0.00 49 1003.4
20260504194016 23 225 11.3 17.7 0.00 0.05 0.00 46 1003.7
20260504193056 22 225 14.5 24.1 0.00 0.05 0.00 47 1003.7
20260504192016 22 225 17.7 27.4 0.00 0.05 0.00 46 1003.9
20260504191017 22 248 12.9 22.5 0.00 0.05 0.00 49 1004.1
20260504190016 22 225 24.1 38.6 0.00 0.05 0.00 47 1004.3
20260504185016 22 158 12.9 25.7 0.00 0.05 0.00 53 1004.4
20260504184016 21 225 19.3 27.4 0.00 0.05 0.00 50 1004.5
20260504183016 21 203 9.7 14.5 0.00 0.05 0.00 55 1004.6
20260504182016 21 225 16.1 29.0 0.00 0.05 0.00 55 1004.7
20260504181036 21 248 16.1 27.4 0.00 0.05 0.00 53 1004.8
20260504180021 20 225 17.7 29.0 0.00 0.05 0.00 54 1005.0
20260504175016 20 248 17.7 32.2 0.00 0.05 0.00 55 1005.0
20260504174016 20 225 14.5 20.9 0.00 0.05 0.00 56 1005.0
20260504173016 20 248 14.5 27.4 0.00 0.05 0.00 57 1005.2
20260504172016 20 203 9.7 14.5 0.00 0.05 0.00 58 1005.2
20260504171016 19 225 17.7 33.8 0.00 0.05 0.00 55 1005.2
20260504151016 17 248 16.1 22.5 0.00 0.05 0.00 56 1006.2
20260504141017 16 248 11.3 16.1 0.00 0.05 0.00 59 1006.1
20260504130115 15 225 12.9 33.8 0.00 0.05 0.00 58 1006.3
20260504120115 11 225 11.3 20.9 0.00 0.05 0.00 65 1006.4
20260504110135 11 248 11.3 19.3 0.00 0.05 0.00 64 1006.4
20260504100115 10 225 6.4 8.0 0.00 0.05 0.00 64 1006.2
20260504090115 10 225 3.2 6.4 0.00 0.05 0.00 68 1006.4
20260504081115 10 248 6.4 9.7 0.00 0.05 0.00 72 1006.9
20260504080115 10 225 8.0 12.9 0.00 0.05 0.00 72 1007.1
20260504070117 10 203 8.0 16.1 0.00 0.05 0.00 71 1007.6
20260504060117 11 203 8.0 12.9 0.00 0.05 0.00 70 1008.1
20260504050118 12 225 8.0 12.9 0.00 0.05 0.00 60 1008.4
20260504045117 12 225 11.3 17.7 0.00 0.05 0.00 58 1008.4
20260504044117 12 248 11.3 16.1 0.00 0.05 0.00 57 1008.5
20260504043135 12 225 11.3 14.5 0.00 0.05 0.00 57 1008.5
20260504042117 12 203 6.4 8.0 0.00 0.05 0.00 57 1008.5